Regional Weather Roundup
Issued by NWS Kansas City/Pleasant Hill, MO

Home | Current Version | Previous Version | Text Only | Print | Product List | Glossary On
Versions: 1 2 3 4 5 6 7 8 9 10 11 12 13 14 15 16 17 18 19 20 21 22 23 24 25 26 27
000
ASUS43 KEAX 291710
RWREAX

WEATHER ROUNDUP FOR EASTERN KANSAS AND NORTHWEST MISSOURI
NATIONAL WEATHER SERVICE KANSAS CITY/PLEASANT HILL MO
1200 PM CDT WED MAR 29 2017

KSZ040-057-103>105-MOZ028-029-037-043-291800-
...KANSAS CITY METROPOLITAN AREA...

CITY           SKY/WX    TMP DP  RH WIND       PRES   REMARKS
K.C. INTL      CLOUDY    50  48  93 E20G30    29.77F
K.C. DOWNTOWN  CLOUDY    51  49  92 E18       29.77F
LEES SUMMIT    CLOUDY    52  51  97 E16       29.78S
OLATHE - IXD   CLOUDY    53  51  93 E14G22    29.73S
OLATHE - OJC   CLOUDY    52  52 100 E18G30    29.73F
LAWRENCE       CLOUDY    52  51  97 E18G26    29.74F

$$

MOZ001>008-011>017-020>025-030>033-038>040-044>046-053-054-291800-
...NORTHERN AND CENTRAL MISSOURI...

CITY           SKY/WX    TMP DP  RH WIND       PRES   REMARKS
ST. JOSEPH     CLOUDY    49  48  97 E12G21    29.80F
MOSBY          CLOUDY    50  46  87 E13G25    29.79F
WARRENSBURG    CLOUDY    50  50 100 E18G31    29.77F
WHITEMAN AFB   LGT RAIN  52  52 100 E20G32    29.78F
CLINTON        CLOUDY    55  54  94 E16G26    29.77F
SEDALIA        CLOUDY    53  52  96 E18G25    29.84F
WARSAW         NOT AVBL
CHILLICOTHE      N/A     49  45  86 E15G25    29.88F
KIRKSVILLE     CLOUDY    47  47 100 E20G26    29.94F

$$

MOZ041-047>049-056>058-063>065-088>090-097-291800-
...EASTERN AND SOUTHERN MISSOURI...

CITY           SKY/WX    TMP DP  RH WIND       PRES   REMARKS
ST. LOUIS INTL TSTM      54  49  83 NE9G17    30.03F
SPIRIT OF STL  CLOUDY    54  50  86 E16       30.00F
COLUMBIA       CLOUDY    50  48  93 E20G29    29.91F
JEFFERSON CITY CLOUDY    55  49  80 E16G23    29.91F
ROLLA          CLOUDY    60  53  77 E15       29.90F
OSAGE BEACH    CLOUDY    61  54  77 E9        29.86F
SPRINGFIELD    CLOUDY    63  57  81 SE25G33   29.74F
BRANSON        CLOUDY    59  59 100 E14G21    29.79F FOG
JOPLIN         PTSUNNY   67  59  75 SE18G30   29.68S
WEST PLAINS    PTSUNNY   61  55  81 E10       29.88F

$$

IAZ060-094-KSZ022-034>040-054-083-096-NEZ052-066-093-291800-
...KANSAS...SOUTHEAST NEBRASKA AND IOWA...

CITY           SKY/WX    TMP DP  RH WIND       PRES   REMARKS
TOPEKA         CLOUDY    51  50  96 E16       29.72F
MANHATTAN      LGT RAIN  49  49 100 NE15G25   29.72S FOG
EMPORIA        CLOUDY    55  55 100 E14       29.65S FOG
CHANUTE        CLOUDY    66  58  75 SE20G30   29.65R
WICHITA        LGT RAIN  54  53  97 NE9       29.61F
OMAHA          LGT RAIN  45  39  79 NE25G33   29.94F
LINCOLN        LGT RAIN  45  43  93 NE21G26   29.93F FOG
FALLS CITY     RAIN      47  45  93 NE16G24   29.80F FOG
LAMONI         CLOUDY    43  42  97 E17G25    29.90F
DES MOINES     LGT RAIN  44  41  89 NE18G24   30.01F FOG

$$





USA.gov is the U.S. government's official web portal to all federal, state and local government web resources and services.